Year,Month,Day,Hour,Minute,Value (Times are PST for temperature in C)
2015,09,23,14,47,17.40
2015,09,23,14,48,17.40
2015,09,23,14,49,17.40
2015,09,23,14,50,17.50
2015,09,23,14,51,17.60
2015,09,23,14,52,17.70
2015,09,23,14,53,17.80
2015,09,23,14,54,17.90
2015,09,23,14,55,18.00
2015,09,23,14,56,18.10
2015,09,23,14,57,18.20
2015,09,23,14,58,18.30
2015,09,23,14,59,18.40
2015,09,23,15,00,18.50
2015,09,23,15,01,18.50
2015,09,23,15,02,18.50
2015,09,23,15,03,18.60
2015,09,23,15,04,18.60
2015,09,23,15,05,18.60
2015,09,23,15,06,18.60
2015,09,23,15,07,18.60
2015,09,23,15,08,18.70
2015,09,23,15,09,18.70
2015,09,23,15,10,18.70
2015,09,23,15,11,18.70
2015,09,23,15,12,18.70
2015,09,23,15,13,18.70
2015,09,23,15,14,18.60
2015,09,23,15,15,18.60
2015,09,23,15,16,18.50
2015,09,23,15,17,18.50
2015,09,23,15,18,18.40
2015,09,23,15,19,18.40
2015,09,23,15,20,18.40
2015,09,23,15,21,18.40
2015,09,23,15,22,18.40
2015,09,23,15,23,18.40
2015,09,23,15,24,18.40
2015,09,23,15,25,18.30
2015,09,23,15,26,18.30
2015,09,23,15,27,18.30
2015,09,23,15,28,18.20
2015,09,23,15,29,18.20
2015,09,23,15,30,18.20
2015,09,23,15,31,18.20
2015,09,23,15,32,18.20
2015,09,23,15,33,18.30
2015,09,23,15,34,18.40
2015,09,23,15,35,18.50
2015,09,23,15,36,18.50
2015,09,23,15,37,18.60
2015,09,23,15,38,18.70
2015,09,23,15,39,18.70
2015,09,23,15,40,18.70
2015,09,23,15,41,18.80
2015,09,23,15,42,18.70
2015,09,23,15,43,18.70
2015,09,23,15,44,18.70
2015,09,23,15,45,18.70
2015,09,23,15,46,18.70
2015,09,23,15,47,18.60
2015,09,23,15,48,18.60
2015,09,23,15,49,18.60
2015,09,23,15,50,18.60
2015,09,23,15,51,18.50
2015,09,23,15,52,18.40
2015,09,23,15,53,18.30
2015,09,23,15,54,18.30
2015,09,23,15,55,18.20
2015,09,23,15,56,18.10
2015,09,23,15,57,17.90
2015,09,23,15,58,17.80
2015,09,23,15,59,17.70
2015,09,23,16,00,17.60
2015,09,23,16,01,17.50
2015,09,23,16,02,17.50
2015,09,23,16,03,17.40
2015,09,23,16,04,17.30
2015,09,23,16,05,17.30
2015,09,23,16,06,17.20
2015,09,23,16,07,17.10
2015,09,23,16,08,17.10
2015,09,23,16,09,17.00
2015,09,23,16,10,17.00
2015,09,23,16,11,16.90
2015,09,23,16,12,16.90
2015,09,23,16,13,16.90
2015,09,23,16,14,16.90
2015,09,23,16,15,16.80
2015,09,23,16,16,16.80
2015,09,23,16,17,16.80
2015,09,23,16,18,16.80
2015,09,23,16,19,16.80
2015,09,23,16,20,16.80
2015,09,23,16,21,16.90
2015,09,23,16,22,16.90
2015,09,23,16,23,16.90
2015,09,23,16,24,16.90
2015,09,23,16,25,16.90
2015,09,23,16,26,17.00
2015,09,23,16,27,17.00
2015,09,23,16,28,17.00
2015,09,23,16,29,17.10
2015,09,23,16,30,17.10
2015,09,23,16,31,17.10
2015,09,23,16,32,17.10
2015,09,23,16,33,17.10
2015,09,23,16,34,17.10
2015,09,23,16,35,17.10
2015,09,23,16,36,17.10
2015,09,23,16,37,17.10
2015,09,23,16,38,17.10
2015,09,23,16,39,17.10
2015,09,23,16,40,17.10
2015,09,23,16,41,17.00
2015,09,23,16,42,16.90
2015,09,23,16,43,16.90
2015,09,23,16,44,16.90
2015,09,23,16,45,16.80
2015,09,23,16,46,16.90
2015,09,23,16,47,16.90
2015,09,23,16,48,16.90
2015,09,23,16,49,16.90
2015,09,23,16,50,17.00
2015,09,23,16,51,17.00
2015,09,23,16,52,17.10
2015,09,23,16,53,17.20
2015,09,23,16,54,17.20
2015,09,23,16,55,17.30
2015,09,23,16,56,17.30
2015,09,23,16,57,17.30
2015,09,23,16,58,17.30
2015,09,23,16,59,17.30
2015,09,23,17,00,17.40
2015,09,23,17,01,17.40
2015,09,23,17,02,17.40
2015,09,23,17,03,17.40
2015,09,23,17,04,17.40
2015,09,23,17,05,17.40
2015,09,23,17,06,17.40
2015,09,23,17,07,17.40
2015,09,23,17,08,17.40
2015,09,23,17,09,17.40
2015,09,23,17,10,17.40
2015,09,23,17,11,17.50
2015,09,23,17,12,17.50
2015,09,23,17,13,17.50
2015,09,23,17,14,17.60
2015,09,23,17,15,17.60
2015,09,23,17,16,17.60
2015,09,23,17,17,17.60
2015,09,23,17,18,17.70
2015,09,23,17,19,17.70
2015,09,23,17,20,17.60
2015,09,23,17,21,17.60
2015,09,23,17,22,17.60
2015,09,23,17,23,17.60
2015,09,23,17,24,17.50
2015,09,23,17,25,17.50
2015,09,23,17,26,17.40
2015,09,23,17,27,17.30
2015,09,23,17,28,17.30
2015,09,23,17,29,17.30
2015,09,23,17,30,17.30
2015,09,23,17,31,17.30
2015,09,23,17,32,17.30
2015,09,23,17,33,17.30
2015,09,23,17,34,17.20
2015,09,23,17,35,17.20
2015,09,23,17,36,17.10
2015,09,23,17,37,17.00
2015,09,23,17,38,17.00
2015,09,23,17,39,16.90
2015,09,23,17,40,16.80
2015,09,23,17,41,16.70
2015,09,23,17,42,16.60
2015,09,23,17,43,16.50
2015,09,23,17,44,16.40
2015,09,23,17,45,16.30
2015,09,23,17,46,16.30
2015,09,23,17,47,16.20
2015,09,23,17,48,16.10
2015,09,23,17,49,16.10
2015,09,23,17,50,16.00
2015,09,23,17,51,16.00
2015,09,23,17,52,15.90
2015,09,23,17,53,15.80
2015,09,23,17,54,15.80
2015,09,23,17,55,15.70
2015,09,23,17,56,15.70
2015,09,23,17,57,15.60
2015,09,23,17,58,15.60
2015,09,23,17,59,15.50
2015,09,23,18,00,15.50
2015,09,23,18,01,15.40
2015,09,23,18,02,15.50
2015,09,23,18,03,15.40
2015,09,23,18,04,15.40
2015,09,23,18,05,15.40
2015,09,23,18,06,15.40
2015,09,23,18,07,15.40
2015,09,23,18,08,15.40
2015,09,23,18,09,15.40
2015,09,23,18,10,15.40
2015,09,23,18,11,15.30
2015,09,23,18,12,15.30
2015,09,23,18,13,15.30
2015,09,23,18,14,15.30
2015,09,23,18,15,15.30
2015,09,23,18,16,15.30
2015,09,23,18,17,15.30
2015,09,23,18,18,15.30
2015,09,23,18,19,15.30
2015,09,23,18,20,15.30
2015,09,23,18,21,15.30
2015,09,23,18,22,15.30
2015,09,23,18,23,15.30
2015,09,23,18,24,15.20
2015,09,23,18,25,15.20
2015,09,23,18,26,15.20
2015,09,23,18,27,15.20
2015,09,23,18,28,15.20
2015,09,23,18,29,15.20
2015,09,23,18,30,15.20
2015,09,23,18,31,15.10
2015,09,23,18,32,15.10
2015,09,23,18,33,15.10
2015,09,23,18,34,15.10
2015,09,23,18,35,15.10
2015,09,23,18,36,15.10
2015,09,23,18,37,15.00
2015,09,23,18,38,15.00
2015,09,23,18,39,15.00
2015,09,23,18,40,14.90
2015,09,23,18,41,14.90
2015,09,23,18,42,14.90
2015,09,23,18,43,14.90
2015,09,23,18,44,14.90
2015,09,23,18,45,14.90
2015,09,23,18,46,14.80
2015,09,23,18,47,14.80
2015,09,23,18,48,14.80
2015,09,23,18,49,14.80
2015,09,23,18,50,14.80
2015,09,23,18,51,14.90
2015,09,23,18,52,14.90
2015,09,23,18,53,14.90
2015,09,23,18,54,14.90
2015,09,23,18,55,14.90
2015,09,23,18,56,15.00
2015,09,23,18,57,15.00
2015,09,23,18,58,15.00
2015,09,23,18,59,15.00
2015,09,23,19,00,15.00
2015,09,23,19,01,15.00
2015,09,23,19,02,15.00
2015,09,23,19,03,15.00
2015,09,23,19,04,15.00
2015,09,23,19,05,15.00
2015,09,23,19,06,14.90
2015,09,23,19,07,14.90
2015,09,23,19,08,14.90
2015,09,23,19,09,14.90
2015,09,23,19,10,14.90
2015,09,23,19,11,14.90
2015,09,23,19,12,14.90
2015,09,23,19,13,14.90
2015,09,23,19,14,14.90
2015,09,23,19,15,14.80
2015,09,23,19,16,14.80
2015,09,23,19,17,14.80
2015,09,23,19,18,14.80
2015,09,23,19,19,14.80
2015,09,23,19,20,14.80
2015,09,23,19,21,14.90
2015,09,23,19,22,14.90
2015,09,23,19,23,14.90
2015,09,23,19,24,14.90
2015,09,23,19,25,14.90
2015,09,23,19,26,14.90
2015,09,23,19,27,14.80
2015,09,23,19,28,14.80
2015,09,23,19,29,14.80
2015,09,23,19,30,14.80
2015,09,23,19,31,14.80
2015,09,23,19,32,14.80
2015,09,23,19,33,14.80
2015,09,23,19,34,14.80
2015,09,23,19,35,14.80
2015,09,23,19,36,14.70
2015,09,23,19,37,14.70
2015,09,23,19,38,14.70
2015,09,23,19,39,14.70
2015,09,23,19,40,14.70
2015,09,23,19,41,14.70
2015,09,23,19,42,14.60
2015,09,23,19,43,14.60
2015,09,23,19,44,14.60
2015,09,23,19,45,14.60
2015,09,23,19,46,14.60
2015,09,23,19,47,14.60
2015,09,23,19,48,14.60
2015,09,23,19,49,14.60
2015,09,23,19,50,14.60
2015,09,23,19,51,14.60
2015,09,23,19,52,14.60
2015,09,23,19,53,14.60
2015,09,23,19,54,14.60
2015,09,23,19,55,14.60
2015,09,23,19,56,14.60
2015,09,23,19,57,14.60
2015,09,23,19,58,14.60
2015,09,23,19,59,14.60
2015,09,23,20,00,14.60
2015,09,23,20,01,14.60
2015,09,23,20,02,14.60
2015,09,23,20,03,14.60
2015,09,23,20,04,14.50
2015,09,23,20,05,14.50
2015,09,23,20,06,14.50
2015,09,23,20,07,14.40
2015,09,23,20,08,14.40
2015,09,23,20,09,14.40
2015,09,23,20,10,14.40
2015,09,23,20,11,14.40
2015,09,23,20,12,14.40
2015,09,23,20,13,14.30
2015,09,23,20,14,14.30
2015,09,23,20,15,14.30
2015,09,23,20,16,14.30
2015,09,23,20,17,14.30
2015,09,23,20,18,14.30
2015,09,23,20,19,14.30
2015,09,23,20,20,14.20
2015,09,23,20,21,14.20
2015,09,23,20,22,14.20
2015,09,23,20,23,14.20
2015,09,23,20,24,14.20
2015,09,23,20,25,14.10
2015,09,23,20,26,14.10
2015,09,23,20,27,14.10
2015,09,23,20,28,14.10
2015,09,23,20,29,14.10
2015,09,23,20,30,14.10
2015,09,23,20,31,14.00
2015,09,23,20,32,14.00
2015,09,23,20,33,14.00
2015,09,23,20,34,14.00
2015,09,23,20,35,14.00
2015,09,23,20,36,13.90
2015,09,23,20,37,13.90
2015,09,23,20,38,13.90
2015,09,23,20,39,13.90
2015,09,23,20,40,13.90
2015,09,23,20,41,13.90
2015,09,23,20,42,13.90
2015,09,23,20,43,13.90
2015,09,23,20,44,13.90
2015,09,23,20,45,13.90
2015,09,23,20,46,13.90
2015,09,23,20,47,13.90
2015,09,23,20,48,13.90
2015,09,23,20,49,13.90
2015,09,23,20,50,13.90
2015,09,23,20,51,13.90
2015,09,23,20,52,13.90
2015,09,23,20,53,13.90
2015,09,23,20,54,13.90
2015,09,23,20,55,13.90
2015,09,23,20,56,14.00
2015,09,23,20,57,14.00
2015,09,23,20,58,14.10
2015,09,23,20,59,14.20
2015,09,23,21,00,14.20
2015,09,23,21,01,14.20
2015,09,23,21,02,14.20
2015,09,23,21,03,14.30
2015,09,23,21,04,14.30
2015,09,23,21,05,14.30
2015,09,23,21,06,14.30
2015,09,23,21,07,14.30
2015,09,23,21,08,14.30
2015,09,23,21,09,14.30
2015,09,23,21,10,14.30
2015,09,23,21,11,14.30
2015,09,23,21,12,14.30
2015,09,23,21,13,14.30
2015,09,23,21,14,14.30
2015,09,23,21,15,14.30
2015,09,23,21,16,14.20
2015,09,23,21,17,14.20
2015,09,23,21,18,14.20
2015,09,23,21,19,14.20
2015,09,23,21,20,14.20
2015,09,23,21,21,14.10
2015,09,23,21,22,14.10
2015,09,23,21,23,14.10
2015,09,23,21,24,14.10
2015,09,23,21,25,14.10
2015,09,23,21,26,14.00
2015,09,23,21,27,14.00
2015,09,23,21,28,14.00
2015,09,23,21,29,13.90
2015,09,23,21,30,13.90
2015,09,23,21,31,13.90
2015,09,23,21,32,13.90
2015,09,23,21,33,13.90
2015,09,23,21,34,13.80
2015,09,23,21,35,13.80
2015,09,23,21,36,13.80
2015,09,23,21,37,13.80
2015,09,23,21,38,13.80
2015,09,23,21,39,13.70
2015,09,23,21,40,13.70
2015,09,23,21,41,13.70
2015,09,23,21,42,13.60
2015,09,23,21,43,13.60
2015,09,23,21,44,13.60
2015,09,23,21,45,13.50
2015,09,23,21,46,13.50
2015,09,23,21,47,13.50
2015,09,23,21,48,13.40
2015,09,23,21,49,13.40
2015,09,23,21,50,13.40
2015,09,23,21,51,13.30
2015,09,23,21,52,13.30
2015,09,23,21,53,13.30
2015,09,23,21,54,13.20
2015,09,23,21,55,13.20
2015,09,23,21,56,13.20
2015,09,23,21,57,13.10
2015,09,23,21,58,13.10
2015,09,23,21,59,13.10
2015,09,23,22,00,13.10
2015,09,23,22,01,13.00
2015,09,23,22,02,13.00
2015,09,23,22,03,12.90
2015,09,23,22,04,12.90
2015,09,23,22,05,12.80
2015,09,23,22,06,12.80
2015,09,23,22,07,12.80
2015,09,23,22,08,12.80
2015,09,23,22,09,12.80
2015,09,23,22,10,12.70
2015,09,23,22,11,12.70
2015,09,23,22,12,12.70
2015,09,23,22,13,12.60
2015,09,23,22,14,12.60
2015,09,23,22,15,12.60
2015,09,23,22,16,12.50
2015,09,23,22,17,12.50
2015,09,23,22,18,12.50
2015,09,23,22,19,12.50
2015,09,23,22,20,12.40
2015,09,23,22,21,12.40
2015,09,23,22,22,12.30
2015,09,23,22,23,12.30
2015,09,23,22,24,12.30
2015,09,23,22,25,12.30
2015,09,23,22,26,12.20
2015,09,23,22,27,12.20
2015,09,23,22,28,12.20
2015,09,23,22,29,12.20
2015,09,23,22,30,12.20
2015,09,23,22,31,12.10
2015,09,23,22,32,12.10
2015,09,23,22,33,12.10
2015,09,23,22,34,12.00
2015,09,23,22,35,12.00
2015,09,23,22,36,12.00
2015,09,23,22,37,12.00
2015,09,23,22,38,11.90
2015,09,23,22,39,11.90
2015,09,23,22,40,11.90
2015,09,23,22,41,11.90
2015,09,23,22,42,11.90
2015,09,23,22,43,11.90
2015,09,23,22,44,11.90
2015,09,23,22,45,11.90
2015,09,23,22,46,11.90
2015,09,23,22,47,11.90
2015,09,23,22,48,11.90
2015,09,23,22,49,11.90
2015,09,23,22,50,11.90
2015,09,23,22,51,11.90
2015,09,23,22,52,11.90
2015,09,23,22,53,11.90
2015,09,23,22,54,11.90
2015,09,23,22,55,11.80
2015,09,23,22,56,11.80
2015,09,23,22,57,11.80
2015,09,23,22,58,11.80
2015,09,23,22,59,11.80
2015,09,23,23,00,11.70
2015,09,23,23,01,11.70
2015,09,23,23,02,11.70
2015,09,23,23,03,11.60
2015,09,23,23,04,11.60
2015,09,23,23,05,11.60
2015,09,23,23,06,11.60
2015,09,23,23,07,11.60
2015,09,23,23,08,11.60
2015,09,23,23,09,11.50
2015,09,23,23,10,11.50
2015,09,23,23,11,11.50
2015,09,23,23,12,11.50
2015,09,23,23,13,11.40
2015,09,23,23,14,11.40
2015,09,23,23,15,11.40
2015,09,23,23,16,11.40
2015,09,23,23,17,11.40
2015,09,23,23,18,11.40
2015,09,23,23,19,11.40
2015,09,23,23,20,11.40
2015,09,23,23,21,11.30
2015,09,23,23,22,11.30
2015,09,23,23,23,11.30
2015,09,23,23,24,11.30
2015,09,23,23,25,11.30
2015,09,23,23,26,11.30
2015,09,23,23,27,11.20
2015,09,23,23,28,11.20
2015,09,23,23,29,11.20
2015,09,23,23,30,11.20
2015,09,23,23,31,11.20
2015,09,23,23,32,11.20
2015,09,23,23,33,11.20
2015,09,23,23,34,11.20
2015,09,23,23,35,11.20
2015,09,23,23,36,11.20
2015,09,23,23,37,11.10
2015,09,23,23,38,11.10
2015,09,23,23,39,11.10
2015,09,23,23,40,11.10
2015,09,23,23,41,11.10
2015,09,23,23,42,11.10
2015,09,23,23,43,11.10
2015,09,23,23,44,11.10
2015,09,23,23,45,11.10
2015,09,23,23,46,11.10
2015,09,23,23,47,11.10
2015,09,23,23,48,11.10
2015,09,23,23,49,11.00
2015,09,23,23,50,11.00
2015,09,23,23,51,11.00
2015,09,23,23,52,10.90
2015,09,23,23,53,10.90
2015,09,23,23,54,10.90
2015,09,23,23,55,10.90
2015,09,23,23,56,10.90
2015,09,23,23,57,10.90
2015,09,23,23,58,10.90
2015,09,23,23,59,10.80
